JBU23 KDCA-KPBI

Flight info

Callsign JBU23
Flight time N/A
Altitude 32000
Route JDUBB4 RRSIN GSO Q83 JEVED Q97 KENLL CPTAN3
Aircraft A21N/M-SDE2E3FGHIJ1RWXY/LB1

Departure

Time 2026-04-21 13:01
Airport Ronald Reagan Washington National Airport (KDCA)

Arrival

Time N/A
Airport Palm Beach International Airport (KPBI)
Time Latitude Longitude Altitude Speed Heading
2026-04-21 12:39 38.85355 -77.04150 30 ft 0 kts 348°
2026-04-21 12:51 38.85341 -77.04147 29 ft 3 kts 348°
2026-04-21 12:52 38.85320 -77.04145 29 ft 4 kts 24°
2026-04-21 12:52 38.85302 -77.04167 29 ft 4 kts 66°
2026-04-21 12:52 38.85299 -77.04177 29 ft 2 kts 72°
2026-04-21 12:55 38.85300 -77.04171 29 ft 3 kts 72°
2026-04-21 12:55 38.85311 -77.04128 29 ft 7 kts 72°
2026-04-21 12:55 38.85329 -77.04053 29 ft 10 kts 72°
2026-04-21 12:56 38.85334 -77.03963 29 ft 11 kts 121°
2026-04-21 12:56 38.85261 -77.03927 29 ft 12 kts 174°
2026-04-21 12:56 38.85171 -77.03917 29 ft 14 kts 176°
2026-04-21 12:56 38.85071 -77.03907 29 ft 15 kts 176°
2026-04-21 12:57 38.84963 -77.03898 29 ft 16 kts 176°
2026-04-21 12:57 38.84849 -77.03888 29 ft 17 kts 176°
2026-04-21 12:57 38.84727 -77.03877 30 ft 18 kts 175°
2026-04-21 12:57 38.84632 -77.03867 30 ft 14 kts 175°
2026-04-21 12:58 38.84567 -77.03860 29 ft 8 kts 175°
2026-04-21 12:58 38.84485 -77.03851 30 ft 14 kts 174°
2026-04-21 12:58 38.84382 -77.03840 30 ft 15 kts 177°
2026-04-21 12:58 38.84279 -77.03831 30 ft 13 kts 175°
2026-04-21 12:59 38.84235 -77.03818 30 ft 6 kts 133°
2026-04-21 12:59 38.84208 -77.03765 29 ft 8 kts 123°
2026-04-21 12:59 38.84181 -77.03704 29 ft 3 kts 106°
2026-04-21 12:59 38.84192 -77.03686 29 ft 3 kts 40°
2026-04-21 13:00 38.84219 -77.03684 29 ft 5 kts 359°
2026-04-21 13:00 38.84449 -77.03703 29 ft 68 kts 356°
2026-04-21 13:00 38.85140 -77.03774 30 ft 131 kts 355°
2026-04-21 13:00 38.86190 -77.03898 381 ft 151 kts 355°
2026-04-21 13:01 38.87184 -77.04106 1246 ft 143 kts 341°
2026-04-21 13:01 38.87965 -77.04867 1762 ft 143 kts 314°
2026-04-21 13:01 38.88718 -77.05777 1905 ft 155 kts 319°
2026-04-21 13:01 38.89591 -77.06712 2193 ft 173 kts 317°
2026-04-21 13:02 38.90378 -77.07960 2529 ft 193 kts 297°
2026-04-21 13:02 38.91036 -77.09563 3045 ft 208 kts 298°
2026-04-21 13:02 38.93332 -77.12270 3932 ft 247 kts 328°
2026-04-21 13:03 38.94824 -77.13385 4795 ft 249 kts 327°
2026-04-21 13:03 38.96185 -77.14767 5734 ft 247 kts 310°
2026-04-21 13:03 38.96993 -77.16670 6612 ft 249 kts 288°
2026-04-21 13:03 38.97361 -77.18856 7431 ft 252 kts 282°
2026-04-21 13:04 38.97669 -77.21091 8215 ft 256 kts 283°
2026-04-21 13:04 38.97947 -77.23364 8974 ft 260 kts 278°
2026-04-21 13:04 38.97777 -77.25713 9704 ft 271 kts 258°
2026-04-21 13:04 38.96882 -77.27914 10319 ft 292 kts 235°
2026-04-21 13:05 38.95206 -77.29583 10607 ft 322 kts 211°
2026-04-21 13:05 38.93048 -77.30667 10887 ft 343 kts 204°
2026-04-21 13:05 38.90701 -77.31719 11154 ft 362 kts 204°
2026-04-21 13:05 38.88317 -77.32824 11403 ft 378 kts 204°
2026-04-21 13:06 38.85804 -77.34027 11791 ft 390 kts 205°
2026-04-21 13:06 38.83244 -77.35274 12402 ft 395 kts 205°
2026-04-21 13:06 38.80666 -77.36539 13056 ft 399 kts 205°
2026-04-21 13:06 38.78054 -77.37822 13672 ft 404 kts 205°
2026-04-21 13:07 38.75422 -77.39119 14263 ft 409 kts 205°
2026-04-21 13:07 38.72747 -77.40440 14777 ft 413 kts 205°
2026-04-21 13:07 38.70057 -77.41769 15293 ft 417 kts 206°
2026-04-21 13:07 38.67330 -77.43111 15819 ft 421 kts 206°
2026-04-21 13:08 38.64582 -77.44462 16366 ft 425 kts 206°
2026-04-21 13:08 38.61808 -77.45830 16915 ft 429 kts 206°
2026-04-21 13:08 38.59010 -77.47206 17460 ft 433 kts 206°
2026-04-21 13:08 38.56180 -77.48591 18003 ft 437 kts 206°
2026-04-21 13:09 38.53329 -77.49990 18515 ft 441 kts 206°
2026-04-21 13:09 38.50460 -77.51396 19016 ft 445 kts 206°
2026-04-21 13:09 38.47549 -77.52812 19491 ft 448 kts 206°
2026-04-21 13:09 38.44624 -77.54237 19973 ft 451 kts 206°
2026-04-21 13:10 38.41694 -77.55676 20451 ft 453 kts 206°
2026-04-21 13:10 38.38859 -77.57385 20907 ft 448 kts 217°
2026-04-21 13:10 38.36247 -77.59557 21366 ft 448 kts 220°
2026-04-21 13:10 38.33666 -77.61796 21821 ft 451 kts 220°
2026-04-21 13:11 38.31067 -77.64053 22273 ft 453 kts 220°
2026-04-21 13:11 38.28574 -77.66484 22688 ft 451 kts 226°
2026-04-21 13:11 38.26170 -77.69061 23133 ft 453 kts 226°
2026-04-21 13:11 38.23754 -77.71657 23563 ft 456 kts 226°
2026-04-21 13:12 38.21330 -77.74267 23989 ft 458 kts 226°
2026-04-21 13:12 38.18891 -77.76887 24364 ft 460 kts 226°
2026-04-21 13:12 38.16432 -77.79519 24727 ft 463 kts 226°
2026-04-21 13:12 38.13966 -77.82150 25095 ft 465 kts 226°
2026-04-21 13:13 38.11488 -77.84796 25455 ft 467 kts 226°
2026-04-21 13:13 38.08992 -77.87457 25812 ft 469 kts 226°
2026-04-21 13:13 38.06488 -77.90123 26148 ft 471 kts 226°
2026-04-21 13:13 38.03968 -77.92809 26486 ft 474 kts 226°
2026-04-21 13:14 38.01439 -77.95495 26820 ft 475 kts 226°
2026-04-21 13:14 37.98909 -77.98185 27250 ft 474 kts 226°
2026-04-21 13:14 37.96388 -78.00865 27707 ft 472 kts 227°
2026-04-21 13:14 37.93905 -78.03502 28145 ft 471 kts 227°
2026-04-21 13:15 37.91363 -78.06191 28571 ft 470 kts 227°
2026-04-21 13:15 37.88886 -78.08814 28979 ft 469 kts 227°
2026-04-21 13:15 37.86388 -78.11461 29385 ft 468 kts 227°
2026-04-21 13:15 37.83889 -78.14102 29793 ft 467 kts 227°
2026-04-21 13:16 37.81400 -78.16726 30195 ft 466 kts 227°
2026-04-21 13:16 37.78916 -78.19348 30554 ft 465 kts 227°
2026-04-21 13:16 37.76425 -78.21969 30838 ft 465 kts 227°
2026-04-21 13:16 37.73941 -78.24587 31132 ft 464 kts 227°
2026-04-21 13:17 37.71466 -78.27188 31428 ft 463 kts 227°
2026-04-21 13:17 37.68988 -78.29792 31727 ft 462 kts 227°
2026-04-21 13:17 37.66517 -78.32388 32008 ft 461 kts 227°
2026-04-21 13:17 37.64057 -78.34972 32273 ft 461 kts 227°
2026-04-21 13:18 37.61594 -78.37560 32489 ft 460 kts 227°
2026-04-21 13:18 37.59131 -78.40140 32528 ft 460 kts 227°
2026-04-21 13:18 37.54216 -78.45281 32510 ft 459 kts 227°
2026-04-21 13:19 37.49301 -78.50418 32499 ft 459 kts 227°
2026-04-21 13:19 37.44377 -78.55546 32507 ft 459 kts 226°
2026-04-21 13:20 37.39432 -78.60638 32501 ft 459 kts 226°
2026-04-21 13:20 37.34526 -78.65690 32499 ft 459 kts 226°
2026-04-21 13:21 37.29588 -78.70770 32496 ft 459 kts 226°
2026-04-21 13:21 37.24644 -78.75847 32489 ft 459 kts 226°
2026-04-21 13:22 37.19679 -78.80896 32479 ft 460 kts 226°
2026-04-21 13:22 37.14731 -78.85962 32484 ft 459 kts 226°
2026-04-21 13:23 37.09793 -78.91041 32490 ft 459 kts 226°
2026-04-21 13:23 37.04821 -78.96072 32477 ft 460 kts 226°
2026-04-21 13:24 36.99863 -79.01133 32483 ft 460 kts 226°
2026-04-21 13:24 36.94913 -79.06195 32479 ft 460 kts 226°
2026-04-21 13:25 36.90801 -79.10412 32480 ft 460 kts 227°
2026-04-21 13:25 36.85861 -79.15487 32483 ft 460 kts 227°
2026-04-21 13:26 36.80910 -79.20551 32489 ft 460 kts 227°
2026-04-21 13:26 36.75955 -79.25619 32500 ft 460 kts 227°
2026-04-21 13:27 36.70999 -79.30679 32509 ft 461 kts 227°
2026-04-21 13:27 36.66033 -79.35736 32515 ft 461 kts 227°
2026-04-21 13:28 36.61103 -79.40750 32519 ft 461 kts 227°
2026-04-21 13:28 36.56136 -79.45788 32515 ft 461 kts 227°
2026-04-21 13:29 36.51165 -79.50823 32512 ft 461 kts 227°
2026-04-21 13:29 36.46195 -79.55856 32496 ft 461 kts 227°
2026-04-21 13:30 36.41219 -79.60878 32498 ft 461 kts 227°
2026-04-21 13:30 36.36245 -79.65898 32503 ft 461 kts 227°
2026-04-21 13:31 36.31270 -79.70906 32501 ft 461 kts 227°
2026-04-21 13:31 36.26297 -79.75899 32495 ft 460 kts 227°
2026-04-21 13:32 36.21318 -79.80891 32484 ft 460 kts 227°
2026-04-21 13:32 36.16372 -79.85847 32487 ft 460 kts 227°
2026-04-21 13:33 36.11395 -79.90819 32491 ft 460 kts 227°
2026-04-21 13:33 36.06421 -79.95776 32490 ft 461 kts 226°
2026-04-21 13:34 36.03727 -79.97991 32482 ft 472 kts 215°
2026-04-21 13:34 36.00704 -79.99662 32489 ft 478 kts 209°
2026-04-21 13:34 35.94501 -80.02660 32480 ft 479 kts 208°
2026-04-21 13:35 35.88317 -80.05679 32475 ft 478 kts 209°
2026-04-21 13:35 35.82156 -80.08715 32484 ft 476 kts 209°
2026-04-21 13:36 35.76017 -80.11740 32489 ft 476 kts 209°
2026-04-21 13:36 35.69871 -80.14767 32493 ft 476 kts 209°
2026-04-21 13:37 35.63720 -80.17787 32489 ft 475 kts 209°
2026-04-21 13:37 35.57615 -80.20778 32510 ft 475 kts 209°
2026-04-21 13:38 35.51476 -80.23785 32525 ft 475 kts 209°
2026-04-21 13:38 35.45325 -80.26784 32534 ft 475 kts 209°
2026-04-21 13:39 35.39138 -80.29659 32524 ft 481 kts 202°
2026-04-21 13:39 35.32469 -80.31124 32521 ft 489 kts 194°
2026-04-21 13:40 35.25736 -80.32353 32507 ft 489 kts 195°
2026-04-21 13:40 35.19015 -80.33615 32490 ft 488 kts 195°
2026-04-21 13:41 35.12305 -80.34882 32479 ft 488 kts 195°
2026-04-21 13:41 35.05597 -80.36151 32468 ft 487 kts 195°
2026-04-21 13:42 34.98901 -80.37421 32470 ft 487 kts 195°
2026-04-21 13:42 34.92207 -80.38673 32466 ft 487 kts 195°
2026-04-21 13:43 34.85510 -80.39933 32456 ft 486 kts 195°
2026-04-21 13:43 34.78820 -80.41191 32467 ft 486 kts 195°
2026-04-21 13:44 34.72141 -80.42440 32456 ft 486 kts 195°
2026-04-21 13:44 34.65449 -80.43689 32450 ft 486 kts 195°
2026-04-21 13:45 34.58772 -80.44942 32450 ft 486 kts 195°
2026-04-21 13:45 34.52096 -80.46188 32452 ft 485 kts 195°
2026-04-21 13:46 34.45415 -80.47428 32455 ft 485 kts 195°
2026-04-21 13:46 34.38740 -80.48670 32463 ft 485 kts 195°
2026-04-21 13:47 34.32066 -80.49911 32470 ft 485 kts 195°
2026-04-21 13:47 34.25413 -80.51213 32466 ft 482 kts 198°
2026-04-21 13:48 34.18915 -80.53130 32466 ft 480 kts 200°
2026-04-21 13:48 34.12429 -80.55083 32451 ft 480 kts 200°
2026-04-21 13:49 34.05938 -80.57029 32420 ft 481 kts 200°
2026-04-21 13:49 33.99443 -80.58970 32417 ft 481 kts 200°
2026-04-21 13:50 33.92953 -80.60908 32421 ft 480 kts 200°
2026-04-21 13:50 33.86463 -80.62837 32409 ft 480 kts 200°
2026-04-21 13:51 33.79981 -80.64766 32403 ft 480 kts 200°
2026-04-21 13:51 33.73502 -80.66691 32399 ft 480 kts 200°
2026-04-21 13:52 33.67024 -80.68610 32408 ft 479 kts 200°
2026-04-21 13:52 33.60546 -80.70500 32407 ft 479 kts 200°
2026-04-21 13:53 33.54067 -80.72405 32411 ft 479 kts 200°
2026-04-21 13:53 33.47646 -80.74296 32417 ft 478 kts 200°
2026-04-21 13:54 33.41144 -80.76203 32415 ft 478 kts 200°
2026-04-21 13:54 33.34687 -80.78103 32412 ft 478 kts 200°